When you browse on this site, cookies collect data to enhance your experience and personalize the content and advertising you see.
Visit our Privacy Policy to learn more. By continuing to use the site, you agree to this use of cookies and data.

Hourly Weather Franceville

Today, 27 September, Sunday

Time Temperature Precipitation Wind Pressure Humidity
00:00 +22°C° 0 mm 0 mps 730 mmHg 95%
01:00 +22°C° 0 mm 0 mps 730 mmHg 96%
02:00 +22°C° 0.2 mm 0 mps 730 mmHg 96%
03:00 +22°C° 0.2 mm 0 mps 730 mmHg 96%
04:00 +22°C° 0.2 mm 0 mps 729 mmHg 96%
05:00 +22°C° 0.2 mm 0 mps 730 mmHg 96%
06:00 +22°C° 0.2 mm 0 mps 730 mmHg 96%
07:00 +22°C° 0.2 mm 0 mps 731 mmHg 96%
08:00 +25°C° 0.2 mm 1 mps 731 mmHg 94%
09:00 +25°C° 0.2 mm 1 mps 731 mmHg 92%
10:00 +26°C° 0.2 mm 1 mps 731 mmHg 90%
11:00 +28°C° 0.7 mm 1 mps 730 mmHg 82%
12:00 +29°C° 0.7 mm 1 mps 730 mmHg 75%
13:00 +31°C° 0.7 mm 2 mps 729 mmHg 67%
14:00 +30°C° 1.1 mm 2 mps 728 mmHg 70%
15:00 +30°C° 1.1 mm 1 mps 728 mmHg 73%
16:00 +30°C° 1.1 mm 1 mps 727 mmHg 76%
17:00 +28°C° 0.4 mm 1 mps 728 mmHg 80%
18:00 +27°C° 0.4 mm 1 mps 729 mmHg 85%
19:00 +25°C° 0.4 mm 1 mps 729 mmHg 89%
20:00 +25°C° 1.1 mm 1 mps 730 mmHg 90%
21:00 +25°C° 1.1 mm 1 mps 730 mmHg 91%
22:00 +25°C° 1.1 mm 1 mps 731 mmHg 91%
23:00 +24°C° 0.9 mm 1 mps 731 mmHg 93%

Tomorrow, 28 September, Monday

Time Temperature Precipitation Wind Pressure Humidity
00:00 +24°C° 0.9 mm 1 mps 731 mmHg 94%
01:00 +24°C° 0.9 mm 1 mps 731 mmHg 95%
02:00 +24°C° 0.8 mm 1 mps 730 mmHg 96%
03:00 +24°C° 0.8 mm 1 mps 730 mmHg 97%
04:00 +22°C° 0.8 mm 0 mps 730 mmHg 97%
05:00 +22°C° 0.2 mm 0 mps 731 mmHg 97%
06:00 +22°C° 0.2 mm 0 mps 731 mmHg 97%
07:00 +22°C° 0.2 mm 0 mps 732 mmHg 96%
08:00 +22°C° 0.3 mm 0 mps 732 mmHg 96%
09:00 +22°C° 0.3 mm 0 mps 733 mmHg 95%
10:00 +22°C° 0.3 mm 0 mps 733 mmHg 94%
11:00 +22°C° 0.3 mm 0 mps 732 mmHg 93%
12:00 +22°C° 0.3 mm 0 mps 732 mmHg 93%
13:00 +23°C° 0.3 mm 0 mps 731 mmHg 92%
14:00 +24°C° 0.4 mm 1 mps 731 mmHg 93%
15:00 +24°C° 0.4 mm 1 mps 730 mmHg 94%
16:00 +24°C° 0.4 mm 1 mps 730 mmHg 95%
17:00 +23°C° 0 mm 1 mps 730 mmHg 96%
18:00 +21°C° 0 mm 0 mps 730 mmHg 96%
19:00 +21°C° 0 mm 0 mps 730 mmHg 97%
20:00 +21°C° 0 mm 0 mps 731 mmHg 97%
21:00 +21°C° 0 mm 0 mps 731 mmHg 97%
22:00 +20°C° 0 mm 0 mps 732 mmHg 96%
23:00 +20°C° 0 mm 0 mps 732 mmHg 96%

Day after tomorrow, 29 September, Tuesday

Time Temperature Precipitation Wind Pressure Humidity
00:00 +20°C° 0 mm 0 mps 731 mmHg 96%
01:00 +20°C° 0 mm 0 mps 731 mmHg 96%
02:00 +20°C° 0 mm 0 mps 731 mmHg 95%
03:00 +19°C° 0 mm 0 mps 731 mmHg 95%
04:00 +19°C° 0 mm 0 mps 731 mmHg 95%
05:00 +20°C° 0 mm 0 mps 731 mmHg 94%
06:00 +20°C° 0 mm 0 mps 732 mmHg 94%
07:00 +20°C° 0 mm 0 mps 733 mmHg 93%
08:00 +25°C° 0 mm 1 mps 733 mmHg 83%
09:00 +27°C° 0 mm 1 mps 733 mmHg 74%
10:00 +29°C° 0 mm 1 mps 733 mmHg 64%
11:00 +31°C° 0 mm 1 mps 733 mmHg 58%
12:00 +32°C° 0 mm 1 mps 732 mmHg 52%
13:00 +35°C° 0 mm 2 mps 731 mmHg 46%
14:00 +32°C° 0.2 mm 2 mps 730 mmHg 54%
15:00 +31°C° 0.2 mm 1 mps 730 mmHg 62%
16:00 +29°C° 0.2 mm 1 mps 729 mmHg 70%
17:00 +28°C° 0.1 mm 1 mps 729 mmHg 76%
18:00 +27°C° 0.1 mm 1 mps 730 mmHg 81%
19:00 +25°C° 0.1 mm 1 mps 730 mmHg 86%
20:00 +25°C° 0 mm 1 mps 731 mmHg 87%
21:00 +23°C° 0 mm 0 mps 731 mmHg 88%
22:00 +22°C° 0 mm 0 mps 732 mmHg 90%
23:00 +22°C° 0 mm 0 mps 731 mmHg 91%

30 September, Wednesday

Time Temperature Precipitation Wind Pressure Humidity
00:00 +22°C° 0 mm 0 mps 731 mmHg 91%
01:00 +22°C° 0 mm 0 mps 731 mmHg 92%
02:00 +22°C° 0 mm 0 mps 731 mmHg 91%
03:00 +22°C° 0 mm 0 mps 731 mmHg 90%
04:00 +24°C° 0 mm 1 mps 731 mmHg 89%
05:00 +24°C° 0 mm 1 mps 731 mmHg 88%
06:00 +22°C° 0 mm 0 mps 731 mmHg 87%
07:00 +22°C° 0 mm 0 mps 732 mmHg 86%
08:00 +25°C° 0 mm 1 mps 732 mmHg 80%
09:00 +27°C° 0 mm 1 mps 732 mmHg 74%
10:00 +28°C° 0 mm 1 mps 733 mmHg 68%
11:00 +29°C° 0 mm 1 mps 732 mmHg 63%
12:00 +31°C° 0 mm 1 mps 731 mmHg 58%
13:00 +32°C° 0 mm 1 mps 731 mmHg 52%
14:00 +31°C° 0.6 mm 1 mps 730 mmHg 59%
15:00 +30°C° 0.6 mm 2 mps 730 mmHg 65%
16:00 +30°C° 0.6 mm 2 mps 729 mmHg 72%
17:00 +28°C° 1.1 mm 2 mps 729 mmHg 78%
18:00 +27°C° 1.1 mm 1 mps 730 mmHg 85%
19:00 +25°C° 1.1 mm 1 mps 730 mmHg 92%
20:00 +25°C° 0.1 mm 1 mps 731 mmHg 92%
21:00 +23°C° 0.1 mm 0 mps 731 mmHg 93%
22:00 +22°C° 0.1 mm 0 mps 731 mmHg 94%
23:00 +22°C° 0 mm 0 mps 731 mmHg 94%

1 October, Thursday

Time Temperature Precipitation Wind Pressure Humidity
00:00 +22°C° 0 mm 0 mps 731 mmHg 94%
01:00 +22°C° 0 mm 0 mps 731 mmHg 95%
02:00 +22°C° 0 mm 0 mps 730 mmHg 95%
03:00 +22°C° 0 mm 0 mps 730 mmHg 95%
04:00 +22°C° 0 mm 0 mps 730 mmHg 95%
05:00 +22°C° 0 mm 0 mps 731 mmHg 94%
06:00 +22°C° 0 mm 0 mps 731 mmHg 94%
07:00 +22°C° 0 mm 0 mps 731 mmHg 94%
08:00 +23°C° 0 mm 0 mps 732 mmHg 89%
09:00 +26°C° 0 mm 1 mps 732 mmHg 84%
10:00 +27°C° 0 mm 1 mps 732 mmHg 78%
11:00 +28°C° 0 mm 1 mps 732 mmHg 74%
12:00 +29°C° 0 mm 1 mps 731 mmHg 70%
13:00 +29°C° 0 mm 1 mps 730 mmHg 66%
14:00 +29°C° 0 mm 1 mps 729 mmHg 69%
15:00 +28°C° 0 mm 1 mps 729 mmHg 72%
16:00 +28°C° 0 mm 1 mps 728 mmHg 74%
17:00 +27°C° 0 mm 1 mps 728 mmHg 79%
18:00 +24°C° 0 mm 0 mps 729 mmHg 84%
19:00 +23°C° 0 mm 0 mps 729 mmHg 89%
20:00 +23°C° 0 mm 0 mps 730 mmHg 89%
21:00 +23°C° 0 mm 0 mps 730 mmHg 89%
22:00 +23°C° 0 mm 0 mps 731 mmHg 89%
23:00 +22°C° 0.1 mm 0 mps 730 mmHg 90%

2 October, Friday

Time Temperature Precipitation Wind Pressure Humidity
00:00 +22°C° 0.1 mm 0 mps 730 mmHg 90%
01:00 +22°C° 0.1 mm 0 mps 730 mmHg 91%
02:00 +22°C° 0 mm 0 mps 730 mmHg 92%
03:00 +22°C° 0 mm 0 mps 730 mmHg 92%
04:00 +21°C° 0 mm 0 mps 730 mmHg 93%
05:00 +22°C° 0 mm 0 mps 730 mmHg 92%
06:00 +22°C° 0 mm 0 mps 731 mmHg 91%
07:00 +22°C° 0 mm 0 mps 731 mmHg 90%
08:00 +24°C° 0 mm 0 mps 731 mmHg 81%
09:00 +28°C° 0 mm 1 mps 732 mmHg 72%
10:00 +30°C° 0 mm 1 mps 732 mmHg 63%
11:00 +31°C° 0 mm 1 mps 731 mmHg 61%
12:00 +32°C° 0 mm 1 mps 730 mmHg 59%
13:00 +32°C° 0 mm 1 mps 730 mmHg 57%
14:00 +32°C° 0.3 mm 1 mps 729 mmHg 59%
15:00 +32°C° 0.3 mm 1 mps 729 mmHg 60%
16:00 +31°C° 0.3 mm 1 mps 728 mmHg 62%
17:00 +30°C° 0.1 mm 1 mps 729 mmHg 70%
18:00 +28°C° 0.1 mm 1 mps 729 mmHg 77%
19:00 +26°C° 0.1 mm 1 mps 730 mmHg 85%
20:00 +26°C° 0.5 mm 1 mps 730 mmHg 86%
21:00 +25°C° 0.5 mm 1 mps 731 mmHg 88%
22:00 +25°C° 0.5 mm 1 mps 731 mmHg 89%
23:00 +25°C° 0.3 mm 1 mps 731 mmHg 90%
Show more